Regional Weather Roundup
Issued by NWS

Home | Current Version | Previous Version | Graphics & Text | Print | Product List | Glossary On
Versions: 1 2 3 4 5 6 7 8 9 10 11 12 13 14 15 16 17 18 19 20 21 22 23 24 25 26 27 28 29 30 31 32 33 34 35 36 37 38 39 40 41 42 43 44 45 46 47 48 49 50
000
ASUS44 KMEG 070810
RWRTN
TENNESSEE HOURLY STATE WEATHER ROUNDUP
NATIONAL WEATHER SERVICE MEMPHIS TN
200 AM CST SUN FEB 07 2016

TNZ002-004-019-021-049-052-054-088>092-070900-
WEST TENNESSEE

CITY           SKY/WX    TMP DP  RH WIND       PRES   REMARKS
MEMPHIS INTL   CLEAR     32  23  69 CALM      30.26F
NWS MEMPHIS      N/A     29 N/A N/A MISG        N/A
JACKSON        CLEAR     26  22  84 S3        30.25F
DYERSBURG      CLEAR     30  27  86 CALM      30.26F
UNION CITY     CLEAR     28  25  86 CALM      30.22F
PARIS          CLEAR     34  19  55 CALM      30.23F
LEXINGTON      CLEAR     25  23  93 CALM      30.23F
$$

TNZ008-025-027-028-033-062-065-066-070900-
NORTH MIDDLE TENNESSEE

CITY           SKY/WX    TMP DP  RH WIND       PRES   REMARKS
NASHVILLE      CLEAR     30  24  78 S3        30.24F
CLARKSVILLE    CLEAR     31  24  75 CALM      30.23F
SMYRNA         CLEAR     26  24  92 CALM      30.25F
COOKEVILLE     CLEAR     21  21 100 CALM      30.20F
CROSSVILLE     CLEAR     28  21  75 CALM      30.19F
$$

TNZ061-075-076-078-094-096-097-070900-
SOUTH MIDDLE TENNESSEE

CITY           SKY/WX    TMP DP  RH WIND       PRES   REMARKS
FAYETTEVILLE   PTCLDY    34  23  64 CALM      30.22F
TULLAHOMA      CLEAR     25  23  93 CALM      30.22F
WINCHESTER     CLEAR     27  25  93 CALM      30.23F
MCMINNVILLE    CLEAR     27  25  93 CALM      30.22F
COLUMBIA       CLEAR     28  28 100 CALM      30.22F
SHELBYVILLE    CLEAR     27  25  93 CALM      30.24F
$$

TNZ017-018-042-046-047-070900-
NORTHEAST TENNESSEE

CITY           SKY/WX    TMP DP  RH WIND       PRES   REMARKS
TRI CITIES     CLEAR     24  21  88 CALM      30.19F
$$

TNZ012-013-036-069-073-074-070900-
CENTRAL EAST TENNESSEE

CITY           SKY/WX    TMP DP  RH WIND       PRES   REMARKS
KNOXVILLE      PTCLDY    30  23  75 CALM      30.20F
OAK RIDGE      CLEAR     30  26  85 CALM      30.22F
GATLINBURG       N/A     23  18  80 CALM      30.20F
MORRISTOWN     PTSUNNY   28  23  80 CALM      30.18F
$$

TNZ083-085-099-070900-
SOUTHEAST TENNESSEE

CITY           SKY/WX    TMP DP  RH WIND       PRES   REMARKS
CHATTANOOGA    CLEAR     31  24  75 CALM      30.22F
$$

SKY/WX REPORTED AS FAIR MEANS FEW OR NO CLOUDS BELOW
12 THOUSAND FEET.




USA.gov is the U.S. government's official web portal to all federal, state and local government web resources and services.